Location: Ferma
(41.9500°N, 44.5167°E)
Time: 19:09:59
(UTC+00:00)

Orbus 7S? - Pass Details

Date: 24 October 2021
Orbit: 328 x 6409 km, 56.9° (Epoch: 01 November)

Event Time Altitude Azimuth Distance (km) Brightness Sun altitude
Rises 16:26:00 0° 313° (NW) 5,127 9.1 -26.5°
Reaches altitude 10° 16:30:28 10° 314° (NW) 3,271 7.9 -27.3°
Enters shadow 16:36:23 59° 314° (NW) 810 4.2 -28.4°
